Pagrindinis puslapis
METAR-TAF:

METAR-TAF

Oro uostai :

Aniak, Aliaska, Jungtinės Amerikos Valstijos

platuma: 61-34-53N, ilguma: 159-32-34W, Aukštis: 27 m

Dabartinis oras

Ataskaita buvo paskelbta 46 minutes, ne 20:56 UTC
Ramus vėjas
Temperatūra -3°C
Drėgmė 80%
Slėgis 1027 hPa
Matomumas: 16.1 km
Giedras dangus

METAR: PANI 222056Z AUTO 00000KT 10SM CLR M03/M06 A3032 RMK AO2 SLP259 T10331061 58008 FZRANO

Laikas: 13:42 (21:42 UTC)


TAF: trūkstamas

Orai ataskaitas ir orų prognozės (METAR, TAF).

turimą stotys yra geltonos ir raudonos taškus žemėlapyje.

Perkelti pele per norėdami pamatyti stoties vardą.

Tada spustelėkite, norėdami matyti oro stebėjimo ir prognozės.

Norėdami pakeisti žemėlapį: spustelėkite ant žalios mygtukų su juodo kryžiaus žemyn,; žalią mygtuką su brūkšneliu, jei norite nutolinti; arba žalių rodyklių gretimoms žemėlapius.


METAR-TAF: